Regional Weather Roundup
Issued by NWS Cleveland, OH

Home | Current Version | Previous Version | Graphics & Text | Print | Product List | Glossary On
Versions: 1 2 3 4 5 6 7 8 9 10 11 12 13 14 15 16 17 18 19 20 21 22 23 24 25 26 27 28 29 30 31 32 33 34 35 36 37 38 39 40 41 42 43 44 45 46 47 48 49 50
000
ASUS41 KCLE 220010
RWRCLE
OHIO REGIONAL WEATHER ROUNDUP
NATIONAL WEATHER SERVICE CLEVELAND, OH
800 PM EDT SAT OCT 21 2017

NOTE: "FAIR" INDICATES FEW OR NO CLOUDS BELOW 12,000 FEET WITH NO
SIGNIFICANT WEATHER AND/OR OBSTRUCTIONS TO VISIBILITY.

OHZ001>008-015>018-024>027-034-035-043-044-220100-
   NORTHWEST OHIO

CITY           SKY/WX    TMP DP  RH WIND       PRES   REMARKS
DEFIANCE       PTCLDY    67  43  41 S6        30.16R
FINDLAY        PTCLDY    60  40  47 S9        30.18R
TOLEDO EXPRESS PTCLDY    61  55  81 S5        30.16R
TOLEDO EXEC    PTCLDY    64  51  62 S6        30.18R
LIMA           PTCLDY    63  43  48 S8        30.20R
$$

OHZ009>014-019>023-028>033-038-089-220100-
   NORTHEAST OHIO

CITY           SKY/WX    TMP DP  RH WIND       PRES   REMARKS
CLE-HOPKINS    MOCLDY    66  51  58 SE9       30.24R
CLE-LAKEFRONT  CLOUDY    69  47  45 S14       30.22R
CUY CO. ARPT   MOCLDY    68  46  45 S7        30.24R
LORAIN-ELYRIA  CLOUDY    65  46  50 S9        30.23R
ASHTABULA      CLOUDY    64  51  62 S5        30.25S
AKRON-CANTON   CLOUDY    62  49  62 S7        30.26R
WOOSTER        PTCLDY    58  50  75 SE3       30.26R
MANSFIELD      CLOUDY    64  51  62 SE8       30.24R
YOUNGSTOWN     MOCLDY    63  51  65 SE6       30.26R
$$

OHZ042-051>053-060>062-070>072-077>081-220100-
  SOUTHWEST OHIO

CITY           SKY/WX    TMP DP  RH WIND       PRES   REMARKS
CINC-COVINGTON MOCLDY    63  51  65 SE6       30.21R
CINC-LUNKEN    CLOUDY    56  54  93 CALM      30.22R
HAMILTON       PTCLDY    57  51  80 CALM      30.22R
DAYTON         MOCLDY    63  49  60 SE8       30.22S
WRIGHT-PAT AFB MOCLDY    62  47  59 CALM      30.21F
DAYTON GENERAL CLOUDY    63  50  62 SE5       30.21S
WILMINGTON     CLOUDY    62  52  69 SE6       30.23S
$$

OHZ036-037-039>041-045>050-054>059-063>069-073>076-082>088-220100-
  CENTRAL AND SOUTHEAST OHIO

CITY           SKY/WX    TMP DP  RH WIND       PRES   REMARKS
COLUMBUS       MOCLDY    67  53  61 S3        30.24R
OSU AIRPORT    PTCLDY    67  51  56 S6        30.23R
BOLTON FIELD   PTCLDY    62  50  63 S5        30.24R
RICKENBACK AFB PTCLDY    61  49  65 SE3       30.23S
NEWARK         CLOUDY    60  53  77 CALM      30.24R
MARION         CLOUDY    65  51  60 S7        30.22S
LANCASTER      PTCLDY    58  52  80 CALM      30.25R
ZANESVILLE     CLOUDY    63  52  67 SE3       30.26R
NEW PHILLY     NOT AVBL
$$




USA.gov is the U.S. government's official web portal to all federal, state and local government web resources and services.